Find Starlink 37133

NORAD ID: 68265 Int'l Des: 2026-055 Owner: SPXS Country: US Constellation: starlink operational
LEOCIRCULAR

Live Position

Loading 3D Globe...

About Starlink 37133

Description loading...

Upcoming Passes

Passes for default location (London). Set your location on the main map for personalized predictions.

Altitude History

Loading altitude history...

Two-Line Element Set

1 68265U 26055D 26112.25001157 -.01939785 00000-0 -16876-1 0 9991
2 68265 53.1599 119.0524 0001155 93.4893 156.4970 15.71343583 6032
Epoch: Apr 22, 2026 • Age: 11 hours

Current Status

Altitude 360.6 km
Velocity 7.70 km/s
Sub-Earth Point 16.53°N, 20.02°E
Launch Date Mar 19, 2026
Age 34 days
Type internet

Technical Details

Classification Payload
Mass 575.00 kg
Dry Mass 530.00 kg
Total Mass 575.00 kg
Length 0.30 m
Diameter 4.10 m
Span 29.00 m
Shape Box + pan
Manufacturer SPXS
Bus Type Starlink V2MO
Phase Status In Orbit
Owner/State SPXS/US

Most Searched